Volver al catálogo

ORSTED

ActivoCienciaPO
NORAD 25635·PAYLOAD·🇩🇰 Denmark

Lanzado Feb 23, 1999 desde Vandenberg Space Force Base

Loading…

Próximos Pases (próximas 24 horas)

TLE

ActualizadoSource: Space-Track

Época: Sep 14, 2026, 15:20 UTC

1 25635U 99008B   26257.63891931  .00000329  00000-0  80858-4 0  9996
2 25635  96.4702 144.7900 0129947 259.6264  99.0268 14.51886664454941

Sigue ORSTED en tiempo real con AllMySat

Download on the App Store